This demonstration page uses our WeatherBlox Daily Observations layout. Learn more.

Left ArrowRight Arrow

Hourly Observations for May 17, 2015

Temp ( °F °C ) Dew Point ( °F °C ) Humidity (%) Winds ( mph kmh ) Pressure ( in mb ) Visibility ( mi km ) Precip ( " mm )
12:16 am 00:16 Cloudy 68 20 N/A N/A SSW 8 13 30.09 1019 10 16.0934 N/A
12:36 am 00:36 Mostly Cloudy 68 20 N/A N/A S 7 11 30.09 1019 10 16.0934 N/A
12:56 am 00:56 Mostly Cloudy 68 20 N/A N/A S 6 9 30.09 1019 10 16.0934 N/A
1:16 am 01:16 Cloudy 68 20 N/A N/A S 7 11 30.09 1019 10 16.0934 N/A
1:37 am 01:37 Cloudy 66 19 N/A N/A S 5 7 30.09 1019 10 16.0934 N/A
1:56 am 01:56 Cloudy 68 20 N/A N/A S 6 9 30.06 1018 10 16.0934 N/A
2:16 am 02:16 Cloudy 66 19 N/A N/A S 5 7 30.09 1019 10 16.0934 N/A
2:36 am 02:36 Cloudy 66 19 N/A N/A S 5 7 30.06 1018 10 16.0934 N/A
2:56 am 02:56 Cloudy 66 19 N/A N/A S 5 7 30.06 1018 10 16.0934 N/A
3:17 am 03:17 Cloudy 66 19 N/A N/A S 7 11 30.06 1018 7 11.26538 N/A
3:36 am 03:36 Cloudy 66 19 N/A N/A SSE 6 9 30.06 1018 7 11.26538 N/A
3:56 am 03:56 Cloudy 66 19 N/A N/A SSE 7 11 30.06 1018 5 8.0467 N/A
4:16 am 04:16 Cloudy 66 19 N/A N/A S 5 7 30.09 1019 5 8.0467 N/A
4:36 am 04:36 Cloudy 66 19 N/A N/A S 5 7 30.09 1019 5 8.0467 N/A
4:57 am 04:57 Cloudy 66 19 N/A N/A S 5 7 30.09 1019 4 6.43736 N/A
5:16 am 05:16 Cloudy 66 19 N/A N/A S 9 15 30.09 1019 4 6.43736 N/A
5:36 am 05:36 Cloudy 66 19 N/A N/A S 7 11 30.09 1019 4 6.43736 N/A
5:56 am 05:56 Cloudy 66 19 N/A N/A S 7 11 30.09 1019 4 6.43736 N/A
6:16 am 06:16 Cloudy 66 19 N/A N/A S 6 9 30.09 1019 4 6.43736 N/A
6:36 am 06:36 Mostly Cloudy 66 19 N/A N/A S 7 11 30.09 1019 4 6.43736 N/A
6:56 am 06:56 Cloudy 66 19 N/A N/A S 6 9 30.12 1020 3 4.82802 N/A
7:16 am 07:16 Cloudy 66 19 N/A N/A SSE 6 9 30.12 1020 4 6.43736 N/A
7:36 am 07:36 Cloudy 68 20 N/A N/A S 8 13 30.12 1020 4 6.43736 N/A
7:56 am 07:56 Cloudy 68 20 N/A N/A S 7 11 30.12 1020 5 8.0467 N/A
8:16 am 08:16 Cloudy 70 21 N/A N/A S 7 11 30.12 1020 7 11.26538 N/A
8:36 am 08:36 Cloudy 68 20 N/A N/A S 7 11 30.12 1020 7 11.26538 N/A
8:56 am 08:56 Cloudy 70 21 N/A N/A S 9 15 30.12 1020 7 11.26538 N/A
9:16 am 09:16 Cloudy 70 21 N/A N/A S 9 15 30.12 1020 7 11.26538 N/A
9:36 am 09:36 Cloudy 70 21 N/A N/A S 8 13 30.09 1019 10 16.0934 N/A
9:56 am 09:56 Cloudy 70 21 N/A N/A S 8 13 30.09 1019 10 16.0934 N/A
10:16 am 10:16 Cloudy 70 21 N/A N/A SSW 9 15 30.09 1019 7 11.26538 N/A
10:36 am 10:36 Cloudy 70 21 N/A N/A SSW 10 17 30.12 1020 7 11.26538 N/A
10:56 am 10:56 Cloudy 72 22 N/A N/A SSW 8 13 30.06 1018 7 11.26538 N/A
11:16 am 11:16 Cloudy 72 22 N/A N/A S 8 13 30.06 1018 7 11.26538 N/A
11:36 am 11:36 Cloudy 72 22 N/A N/A S 9 15 30.06 1018 7 11.26538 N/A
11:56 am 11:56 Cloudy 73 23 N/A N/A S 12 19 30.06 1018 10 16.0934 N/A
12:16 pm 12:16 Cloudy 73 23 N/A N/A S 13 20 30.06 1018 10 16.0934 N/A
12:36 pm 12:36 Cloudy 73 23 N/A N/A S 10 17 30.06 1018 10 16.0934 N/A
12:56 pm 12:56 Cloudy 75 24 N/A N/A SSW 14 22 30.09 1019 10 16.0934 N/A
1:16 pm 13:16 Mostly Cloudy 75 24 66 19 74 74 S 9 15 30.09 1019 10 16.0934 N/A
1:36 pm 13:36 Cloudy 75 24 72 22 89 89 SSW 10 17 30.09 1019 10 16.0934 N/A
1:56 pm 13:56 Cloudy 77 25 68 20 74 74 S 15 24 30.06 1018 10 16.0934 N/A
2:16 pm 14:16 Mostly Cloudy 75 24 70 21 83 83 S 10 17 30.06 1018 10 16.0934 N/A
2:36 pm 14:36 Mostly Cloudy 77 25 68 20 74 74 S 13 20 30.06 1018 10 16.0934 N/A
2:57 pm 14:57 Mostly Cloudy 77 25 68 20 74 74 S 13 20 30.06 1018 10 16.0934 N/A
3:16 pm 15:16 Mostly Cloudy 79 26 68 20 70 70 S 16 26 30.03 1017 10 16.0934 N/A
3:36 pm 15:36 Mostly Cloudy 77 25 66 19 69 69 S 15 24 30.03 1017 7 11.26538 N/A
3:56 pm 15:56 Partly Cloudy 79 26 66 19 65 65 S 13 20 30.03 1017 7 11.26538 N/A
4:16 pm 16:16 Mostly Cloudy 77 25 66 19 69 69 SSW 14 22 30.03 1017 10 16.0934 N/A
4:37 pm 16:37 Mostly Cloudy 77 25 66 19 69 69 S 14 22 30 1016 10 16.0934 N/A
4:56 pm 16:56 Partly Cloudy 79 26 64 18 61 61 S 17 28 30 1016 7 11.26538 N/A
5:16 pm 17:16 Partly Cloudy 79 26 66 19 65 65 S 16 26 30 1016 10 16.0934 N/A
5:36 pm 17:36 Partly Cloudy 77 25 66 19 69 69 S 18 30 29.97 1015 10 16.0934 N/A
5:56 pm 17:56 Sunny 77 25 66 19 69 69 S 15 24 29.97 1015 10 16.0934 N/A
6:16 pm 18:16 Sunny 77 25 66 19 69 69 S 13 20 29.97 1015 10 16.0934 N/A
6:36 pm 18:36 Partly Cloudy 77 25 66 19 69 69 S 13 20 29.97 1015 10 16.0934 N/A
6:56 pm 18:56 Partly Cloudy 77 25 66 19 69 69 S 14 22 29.97 1015 10 16.0934 N/A
7:16 pm 19:16 Mostly Cloudy 79 26 68 20 70 70 SSW 12 19 30 1016 10 16.0934 N/A
7:36 pm 19:36 Mostly Cloudy 77 25 68 20 74 74 S 12 19 30 1016 10 16.0934 N/A
7:56 pm 19:56 Mostly Cloudy 77 25 70 21 79 79 S 8 13 30 1016 10 16.0934 N/A
8:16 pm 20:16 Partly Cloudy 77 25 70 21 79 79 SSW 8 13 30 1016 10 16.0934 N/A
8:36 pm 20:36 Partly Cloudy 75 24 70 21 83 83 SSW 8 13 30 1016 10 16.0934 N/A
8:56 pm 20:56 Partly Cloudy 75 24 68 20 78 78 SSW 14 22 30 1016 10 16.0934 N/A
9:16 pm 21:16 Partly Cloudy 75 24 68 20 78 78 SSW 13 20 30.03 1017 10 16.0934 N/A
9:36 pm 21:36 Partly Cloudy 75 24 68 20 78 78 SSW 10 17 30.03 1017 10 16.0934 N/A
9:56 pm 21:56 Clear 73 23 68 20 83 83 SSW 10 17 30.03 1017 10 16.0934 N/A
10:16 pm 22:16 Clear 73 23 68 20 83 83 SSW 12 19 30.03 1017 10 16.0934 N/A
10:36 pm 22:36 Clear 73 23 68 20 83 83 SSW 12 19 30.03 1017 10 16.0934 N/A
10:56 pm 22:56 Clear 73 23 68 20 83 83 SSW 9 15 30.03 1017 10 16.0934 N/A
11:16 pm 23:16 Clear 73 23 70 21 89 89 SSW 10 17 30.03 1017 10 16.0934 N/A
11:36 pm 23:36 Clear 73 23 70 21 89 89 SSW 9 15 30.03 1017 10 16.0934 N/A
11:56 pm 23:56 Clear 73 23 70 21 89 89 SSW 13 20 30.03 1017 10 16.0934 N/A

Powered by AerisWeather